{"data":{"norad_id":49143,"epoch":"2026-09-20T02:52:14.043936Z","epoch_age_seconds":74236,"freshness":"FRESH","line1":"1 49143U 21082P   26263.11960699 -.00004352  00000+0 -36473-3 0  9995","line2":"2 49143  69.9992 145.6357 0002864 271.2053  88.8777 14.97526578276675","mean_motion":14.97526578,"eccentricity":0.0002864,"inclination_deg":69.9992,"raan_deg":145.6357,"arg_perigee_deg":271.2053,"mean_anomaly_deg":88.8777,"bstar":-0.00036473,"rev_number":27667,"period_min":96.158560465963,"perigee_km":572.55027079557,"apogee_km":576.53276505063,"semimajor_km":6952.6785179231,"source":"CELESTRAK","updated_at":"2026-09-20T09:00:39.248456Z"}}